START_TIME,STEP,MOV.,M15,t_acc.,M20,t_acc.
1981-08-29 06:00:44.540 ,0,0,0,24,0,24
1981-08-29 06:01:08.540 ,1,1,0,24,0,24
1981-08-29 06:01:32.540 ,1,0,0,24,0,24
1981-08-29 06:01:56.540 ,2,1,0,24,0,24
1981-08-29 06:02:20.540 ,2,0,0,24,0,24
1981-08-29 06:02:44.540 ,3,1,0,24,0,24
1981-08-29 06:03:08.540 ,3,0,0,24,0,24
1981-08-29 06:03:32.540 ,4,1,0,24,0,24
1981-08-29 06:03:56.540 ,4,0,0,24,0,24
1981-08-29 06:04:20.540 ,5,1,0,24,0,24
1981-08-29 06:04:44.540 ,5,0,0,24,0,24
1981-08-29 06:05:08.540 ,6,1,0,24,0,24
1981-08-29 06:05:32.540 ,6,0,0,24,0,24
1981-08-29 06:05:56.540 ,7,1,0,24,0,24
1981-08-29 06:06:20.540 ,7,0,0,24,0,24
1981-08-29 06:06:44.540 ,7,1,0,24,0,24
1981-08-29 06:07:08.540 ,6,1,0,24,0,24
1981-08-29 06:07:32.540 ,5,1,0,24,0,24
1981-08-29 06:07:56.540 ,4,1,0,24,0,24
1981-08-29 06:08:20.540 ,3,1,0,24,0,24
1981-08-29 06:08:44.540 ,2,1,0,24,0,24
1981-08-29 06:09:08.540 ,1,1,0,24,0,24
1981-08-29 06:09:32.540 ,0,1,0,24,0,24
1981-08-29 06:09:56.540 ,0,1,0,24,0,24
1981-08-29 06:10:20.540 ,1,1,0,24,0,24
1981-08-29 06:10:44.540 ,2,1,0,24,0,24
1981-08-29 06:11:08.540 ,3,1,0,24,0,24
1981-08-29 06:11:32.540 ,4,1,0,24,0,24
1981-08-29 06:11:56.540 ,5,1,0,24,0,24
1981-08-29 06:12:20.540 ,6,1,0,24,0,24
1981-08-29 06:12:44.540 ,7,1,0,24,0,24
1981-08-29 06:13:08.540 ,7,1,0,24,0,24
1981-08-29 06:13:32.540 ,7,0,0,24,0,24
1981-08-29 06:13:56.540 ,6,1,0,24,0,24
1981-08-29 06:14:20.540 ,6,0,0,24,0,24
1981-08-29 06:14:44.540 ,5,1,0,24,0,24
1981-08-29 06:15:08.540 ,5,0,0,24,0,24
1981-08-29 06:15:32.540 ,4,1,0,24,0,24
1981-08-29 06:15:56.540 ,4,0,0,24,0,24
1981-08-29 06:16:20.540 ,3,1,0,24,0,24
1981-08-29 06:16:44.540 ,3,0,0,24,0,24
1981-08-29 06:17:08.540 ,2,1,0,24,0,24
1981-08-29 06:17:32.540 ,2,0,0,24,0,24
1981-08-29 06:17:56.540 ,1,1,0,24,0,24
1981-08-29 06:18:20.540 ,1,0,0,24,0,24
1981-08-29 06:18:44.540 ,0,1,0,24,0,24
1981-08-29 06:19:08.540 ,0,0,0,24,0,24
1981-08-29 06:19:32.540 ,0,1,0,24,0,24
1981-08-29 06:19:56.540 ,0,0,0,24,0,24
1981-08-29 06:20:20.540 ,1,1,0,24,0,24
1981-08-29 06:20:44.540 ,1,0,0,24,0,24
1981-08-29 06:21:08.540 ,2,1,0,24,0,24
1981-08-29 06:21:32.540 ,2,0,0,24,0,24
1981-08-29 06:21:56.540 ,3,1,0,24,0,24
1981-08-29 06:22:20.540 ,3,0,0,24,0,24
1981-08-29 06:22:44.540 ,4,1,0,24,0,24
1981-08-29 06:23:08.540 ,4,0,0,24,0,24
1981-08-29 06:23:32.540 ,5,1,0,24,0,24
1981-08-29 06:23:56.540 ,5,0,0,24,0,24
1981-08-29 06:24:20.540 ,6,1,0,24,0,24
1981-08-29 06:24:44.540 ,6,0,0,24,0,24
1981-08-29 06:25:08.540 ,7,1,0,24,0,24
1981-08-29 06:25:32.540 ,7,0,0,24,0,24
1981-08-29 06:25:56.540 ,7,1,0,24,0,24
1981-08-29 06:26:20.540 ,6,1,0,24,0,24
1981-08-29 06:26:44.540 ,5,1,0,24,0,24
1981-08-29 06:27:08.540 ,4,1,0,24,0,24
1981-08-29 06:27:32.540 ,3,1,0,24,0,24
1981-08-29 06:27:56.540 ,2,1,0,24,0,24
1981-08-29 06:28:20.540 ,1,1,0,24,0,24
1981-08-29 06:28:44.540 ,0,1,0,24,0,24
1981-08-29 06:29:08.540 ,0,1,0,24,0,24
1981-08-29 06:29:32.540 ,1,1,0,24,0,24
1981-08-29 06:29:56.540 ,2,1,0,24,0,24
1981-08-29 06:30:20.540 ,3,1,0,24,0,24
1981-08-29 06:30:44.540 ,4,1,0,24,0,24
1981-08-29 06:31:08.540 ,5,1,0,24,0,24
1981-08-29 06:31:32.540 ,6,1,0,24,0,24
1981-08-29 06:31:56.540 ,0,0,0,24,0,24
1981-08-29 06:32:47.540 ,0,0,0,24,0,24
1981-08-29 06:33:08.540 ,6,1,0,24,0,24
1981-08-29 06:33:32.540 ,6,0,0,24,0,24
1981-08-29 06:33:56.540 ,5,1,0,24,0,24
1981-08-29 06:34:20.540 ,5,0,0,24,0,24
1981-08-29 06:34:44.540 ,4,1,0,24,0,24
1981-08-29 06:35:08.540 ,4,0,0,24,0,24
1981-08-29 06:35:32.540 ,3,1,0,24,0,24
1981-08-29 06:35:56.540 ,3,0,0,24,0,24
1981-08-29 06:36:20.540 ,2,1,0,24,0,24
1981-08-29 06:36:44.540 ,2,0,0,24,0,24
1981-08-29 06:37:08.540 ,1,1,0,24,0,24
1981-08-29 06:37:32.540 ,1,0,0,24,0,24
1981-08-29 06:37:56.540 ,0,1,0,24,0,24
1981-08-29 06:38:20.540 ,0,0,0,24,0,24
1981-08-29 06:38:44.540 ,0,1,0,24,0,24
1981-08-29 06:39:08.540 ,0,0,0,24,0,24
1981-08-29 06:39:32.540 ,1,1,0,24,0,24
1981-08-29 06:39:56.540 ,1,0,0,24,0,24
1981-08-29 06:40:20.540 ,2,1,0,24,0,24
1981-08-29 06:40:44.540 ,2,0,0,24,0,24
1981-08-29 06:41:08.540 ,3,1,0,24,0,24
1981-08-29 06:41:32.540 ,3,0,0,24,0,24
1981-08-29 06:41:56.540 ,4,1,0,24,0,24
1981-08-29 06:42:20.540 ,4,0,0,24,0,24
1981-08-29 06:42:44.540 ,5,1,0,24,0,24
1981-08-29 06:43:08.540 ,5,0,0,24,0,24
1981-08-29 06:43:32.540 ,6,1,0,24,0,24
1981-08-29 06:43:56.540 ,6,0,0,24,0,24
1981-08-29 06:44:20.540 ,7,1,0,24,0,24
1981-08-29 06:44:44.540 ,7,0,0,24,0,24
1981-08-29 06:45:08.540 ,7,1,0,24,0,24
1981-08-29 06:45:32.540 ,6,1,0,24,0,24
1981-08-29 06:45:56.540 ,5,1,0,24,0,24
1981-08-29 06:46:20.540 ,4,1,0,24,0,24
1981-08-29 06:46:44.540 ,3,1,0,24,0,24
1981-08-29 06:47:08.540 ,2,1,0,24,0,24
1981-08-29 06:47:32.540 ,1,1,0,24,0,24
1981-08-29 06:47:56.540 ,0,1,0,24,0,24
1981-08-29 06:48:20.540 ,0,1,0,24,0,24
1981-08-29 06:48:44.540 ,1,1,0,24,0,24
1981-08-29 06:49:08.540 ,2,1,0,24,0,24
1981-08-29 06:49:32.540 ,3,1,0,24,0,24
1981-08-29 06:49:56.540 ,4,1,0,24,0,24
1981-08-29 06:50:20.540 ,5,1,0,24,0,24
1981-08-29 06:50:44.540 ,6,1,0,24,0,24
1981-08-29 06:51:08.540 ,7,1,0,24,0,24
1981-08-29 06:51:32.540 ,7,1,0,24,0,24
1981-08-29 06:51:56.540 ,7,0,0,24,0,24
1981-08-29 06:52:20.540 ,6,1,0,24,0,24
1981-08-29 06:52:44.540 ,6,0,0,24,0,24
1981-08-29 06:53:08.540 ,5,1,0,24,0,24
1981-08-29 06:53:32.540 ,5,0,0,24,0,24
1981-08-29 06:53:56.540 ,4,1,0,24,0,24
1981-08-29 06:54:20.540 ,4,0,0,24,0,24
1981-08-29 06:54:44.540 ,3,1,0,24,0,24
1981-08-29 06:55:08.540 ,3,0,0,24,0,24
1981-08-29 06:55:32.540 ,2,1,0,24,0,24
1981-08-29 06:55:56.540 ,2,0,0,24,0,24
1981-08-29 06:56:20.540 ,1,1,0,24,0,24
1981-08-29 06:56:44.540 ,1,0,0,24,0,24
1981-08-29 06:57:08.540 ,0,1,0,24,0,24
1981-08-29 06:57:32.540 ,0,0,0,24,0,24
1981-08-29 06:57:56.540 ,0,1,0,24,0,24
1981-08-29 06:58:20.540 ,0,0,,0,,0
1981-08-29 06:58:44.540 ,1,1,0,24,0,24
1981-08-29 06:59:08.540 ,1,0,0,24,0,24
1981-08-29 06:59:32.540 ,2,1,0,24,0,24
1981-08-29 06:59:56.540 ,2,0,0,24,0,24
1981-08-29 07:00:20.540 ,3,1,0,24,0,24
1981-08-29 07:00:44.540 ,3,0,0,24,0,24
1981-08-29 07:01:08.540 ,4,1,0,24,0,24
1981-08-29 07:01:32.540 ,4,0,0,24,0,24
1981-08-29 07:01:56.540 ,5,1,0,24,0,24
1981-08-29 07:02:20.540 ,5,0,0,24,0,24
1981-08-29 07:02:44.540 ,6,1,0,24,0,24
1981-08-29 07:03:08.540 ,6,0,0,24,0,24
1981-08-29 07:03:32.540 ,7,1,0,24,0,24
1981-08-29 07:03:56.540 ,7,0,0,24,0,24
1981-08-29 07:04:20.540 ,7,1,0,24,0,24
1981-08-29 07:04:44.540 ,6,1,0,24,0,24
1981-08-29 07:05:08.540 ,5,1,0,24,0,24
1981-08-29 07:05:32.540 ,4,1,0,24,0,24
1981-08-29 07:05:56.540 ,3,1,0,24,0,24
1981-08-29 07:06:20.540 ,2,1,0,24,0,24
1981-08-29 07:06:44.540 ,1,1,0,24,0,24
1981-08-29 07:07:08.540 ,0,1,0,24,0,24
1981-08-29 07:07:32.540 ,0,1,0,24,0,24
1981-08-29 07:07:56.540 ,1,1,0,24,0,24
1981-08-29 07:08:20.540 ,2,1,0,24,0,24
1981-08-29 07:08:44.540 ,3,1,0,24,0,24
1981-08-29 07:09:08.540 ,4,1,0,24,0,24
1981-08-29 07:09:32.540 ,5,1,0,24,0,24
1981-08-29 07:09:56.540 ,6,1,0,24,0,24
1981-08-29 07:10:20.540 ,7,1,0,24,0,24
1981-08-29 07:10:44.540 ,7,1,0,24,0,24
1981-08-29 07:11:08.540 ,7,0,0,24,0,24
1981-08-29 07:11:32.540 ,6,1,0,24,0,24
1981-08-29 07:11:56.540 ,6,0,0,24,0,24
1981-08-29 07:12:20.540 ,5,1,0,24,0,24
1981-08-29 07:12:44.540 ,5,0,0,24,0,24
1981-08-29 07:13:08.540 ,4,1,0,24,0,24
1981-08-29 07:13:32.540 ,4,0,0,24,0,24
1981-08-29 07:13:56.540 ,3,1,0,24,0,24
1981-08-29 07:14:20.540 ,3,0,0,24,0,24
1981-08-29 07:14:44.540 ,2,1,0,24,0,24
1981-08-29 07:15:08.540 ,2,0,0,24,0,24
1981-08-29 07:15:32.540 ,1,1,0,24,0,24
1981-08-29 07:15:56.540 ,1,0,0,24,0,24
1981-08-29 07:16:20.540 ,0,1,0,24,0,24
1981-08-29 07:16:44.540 ,0,0,0,24,0,24
1981-08-29 07:17:08.540 ,0,1,0,24,0,24
1981-08-29 07:17:32.540 ,0,0,0,24,0,24
1981-08-29 07:17:56.540 ,1,1,0,24,0,24
1981-08-29 07:18:20.540 ,1,0,0,24,0,24
1981-08-29 07:18:44.540 ,2,1,0,24,0,24
1981-08-29 07:19:08.540 ,2,0,0,24,0,24
1981-08-29 07:19:32.540 ,3,1,0,24,0,24
1981-08-29 07:19:56.540 ,3,0,0,24,0,24
1981-08-29 07:20:20.540 ,4,1,0,24,0,24
1981-08-29 07:20:44.540 ,4,0,0,24,0,24
1981-08-29 07:21:08.540 ,5,1,0,24,0,24
1981-08-29 07:21:32.540 ,5,0,0,24,0,24
1981-08-29 07:21:56.540 ,6,1,0,24,0,24
1981-08-29 07:22:20.540 ,6,0,0,24,0,24
1981-08-29 07:22:44.540 ,7,1,0,24,0,24
1981-08-29 07:23:08.540 ,7,0,0,24,0,24
1981-08-29 07:23:32.540 ,7,1,0,24,0,24
1981-08-29 07:23:56.540 ,6,1,0,24,0,24
1981-08-29 07:24:20.540 ,5,1,0,24,0,24
1981-08-29 07:24:44.540 ,4,1,0,24,0,24
1981-08-29 07:25:08.540 ,3,1,0,24,0,24
1981-08-29 07:25:32.540 ,2,1,0,24,0,24
1981-08-29 07:25:56.540 ,1,1,0,24,0,24
1981-08-29 07:26:20.540 ,0,1,0,24,0,24
1981-08-29 07:26:44.540 ,0,1,0,24,0,24
1981-08-29 07:27:08.540 ,1,1,0,24,0,24
1981-08-29 07:27:32.540 ,2,1,0,24,0,24
1981-08-29 07:27:56.540 ,3,1,0,24,0,24
1981-08-29 07:28:20.540 ,4,1,0,24,0,24
1981-08-29 07:28:44.540 ,5,1,0,24,0,24
1981-08-29 07:29:08.540 ,6,1,0,24,0,24
1981-08-29 07:29:32.540 ,7,1,0,24,0,24
1981-08-29 07:29:56.540 ,7,1,0,24,0,24
1981-08-29 07:30:20.540 ,7,0,0,24,0,24
1981-08-29 07:30:44.540 ,6,1,0,24,0,24
1981-08-29 07:31:08.540 ,6,0,0,24,0,24
1981-08-29 07:31:32.540 ,5,1,0,24,0,24
1981-08-29 07:31:56.540 ,5,0,0,24,0,24
1981-08-29 07:32:20.540 ,4,1,0,24,0,24
1981-08-29 07:32:44.540 ,4,0,0,24,0,24
1981-08-29 07:33:08.540 ,3,1,0,24,0,24
1981-08-29 07:33:32.540 ,3,0,0,24,0,24
1981-08-29 07:33:56.540 ,2,1,0,24,0,24
1981-08-29 07:34:20.540 ,2,0,0,24,0,24
1981-08-29 07:34:44.540 ,1,1,0,24,0,24
1981-08-29 07:35:08.540 ,1,0,0,24,0,24
1981-08-29 07:35:32.540 ,0,1,0,24,0,24
1981-08-29 07:35:56.540 ,0,0,0,24,0,24
1981-08-29 07:36:20.540 ,0,1,0,24,0,24
1981-08-29 07:36:44.540 ,0,0,0,24,0,24
1981-08-29 07:37:08.540 ,1,1,0,24,0,24
1981-08-29 07:37:32.540 ,1,0,0,24,0,24
1981-08-29 07:37:56.540 ,2,1,0,24,0,24
1981-08-29 07:38:20.540 ,2,0,0,24,0,24
1981-08-29 07:38:44.540 ,3,1,0,24,0,24
1981-08-29 07:39:08.540 ,3,0,0,24,0,24
1981-08-29 07:39:32.540 ,4,1,0,24,0,24
1981-08-29 07:39:56.540 ,4,0,0,24,0,24
1981-08-29 07:40:20.540 ,5,1,0,24,0,24
1981-08-29 07:40:44.540 ,5,0,0,24,0,24
1981-08-29 07:41:08.540 ,6,1,0,24,0,24
1981-08-29 07:41:32.540 ,6,0,0,24,0,24
1981-08-29 07:41:56.540 ,7,1,0,24,0,24
1981-08-29 07:42:20.540 ,7,0,0,24,0,24
1981-08-29 07:42:44.540 ,7,1,0,24,0,24
1981-08-29 07:43:08.540 ,6,1,0,24,0,24
1981-08-29 07:43:32.540 ,5,1,0,24,0,24
1981-08-29 07:43:56.540 ,4,1,0,24,0,24
1981-08-29 07:44:20.540 ,3,1,0,24,0,24
1981-08-29 07:44:44.540 ,2,1,0,24,0,24
1981-08-29 07:45:08.540 ,1,1,0,24,0,24
1981-08-29 07:45:32.540 ,0,1,0,24,0,24
1981-08-29 07:45:56.540 ,0,1,0,24,0,24
1981-08-29 07:46:20.540 ,1,1,0,24,0,24
1981-08-29 07:46:44.540 ,2,1,0,24,0,24
1981-08-29 07:47:08.540 ,3,1,0,24,0,24
1981-08-29 07:47:32.540 ,4,1,0,24,0,24
1981-08-29 07:47:56.540 ,5,1,0,24,0,24
1981-08-29 07:48:20.540 ,6,1,0,24,0,24
1981-08-29 07:48:44.540 ,7,1,0,24,0,24
1981-08-29 07:49:08.540 ,7,1,0,24,0,24
1981-08-29 07:49:32.540 ,7,0,0,24,0,24
1981-08-29 07:49:56.540 ,6,1,0,24,0,24
1981-08-29 07:50:20.540 ,6,0,0,24,0,24
1981-08-29 07:50:44.540 ,5,1,0,24,0,24
1981-08-29 07:51:08.540 ,5,0,0,24,0,24
1981-08-29 07:51:32.540 ,4,1,0,24,0,24
1981-08-29 07:51:56.540 ,4,0,0,24,0,24
1981-08-29 07:52:20.540 ,3,1,0,24,0,24
1981-08-29 07:52:44.540 ,3,0,0,24,0,24
1981-08-29 07:53:08.540 ,2,1,0,24,0,24
1981-08-29 07:53:32.540 ,2,0,0,24,0,24
1981-08-29 07:53:56.540 ,1,1,0,24,0,24
1981-08-29 07:54:20.540 ,1,0,0,24,0,24
1981-08-29 07:54:44.540 ,0,1,0,24,0,24
1981-08-29 07:55:08.540 ,0,0,0,24,0,24
1981-08-29 07:55:32.540 ,0,1,0,24,0,24
1981-08-29 07:55:56.540 ,0,0,0,24,0,24
1981-08-29 07:56:20.540 ,1,1,0,24,0,24
1981-08-29 07:56:44.540 ,1,0,0,24,0,24
1981-08-29 07:57:08.540 ,2,1,0,24,0,24
1981-08-29 07:57:32.540 ,2,0,0,24,0,24
1981-08-29 07:57:56.540 ,3,1,0,24,0,24
1981-08-29 07:58:20.540 ,3,0,0,24,0,24
1981-08-29 07:58:44.540 ,4,1,0,24,0,24
1981-08-29 07:59:08.540 ,0,0,0,24,0,24
1981-08-29 07:59:37.940 ,0,0,0,24,0,24
1981-08-29 07:59:56.540 ,0,0,0,24,0,24
1981-08-29 08:00:20.540 ,6,1,0,24,0,24
1981-08-29 08:00:44.540 ,6,0,0,24,0,24
1981-08-29 08:01:08.540 ,7,1,0,24,0,24
1981-08-29 08:01:32.540 ,7,0,0,24,0,24
1981-08-29 08:01:56.540 ,7,1,0,24,0,24
1981-08-29 08:02:20.540 ,6,1,0,24,0,24
1981-08-29 08:02:44.540 ,5,1,0,24,0,24
1981-08-29 08:03:08.540 ,4,1,0,24,0,24
1981-08-29 08:03:32.540 ,3,1,0,24,0,24
1981-08-29 08:03:56.540 ,2,1,0,24,0,24
1981-08-29 08:04:20.540 ,1,1,1,24,0,24
1981-08-29 08:04:44.540 ,0,1,0,24,0,24
1981-08-29 08:05:08.540 ,0,1,0,24,0,24
1981-08-29 08:05:32.540 ,1,1,0,24,0,24
1981-08-29 08:05:56.540 ,2,1,0,24,0,24
1981-08-29 08:06:20.540 ,3,1,0,24,0,24
1981-08-29 08:06:44.540 ,4,1,0,24,0,24
1981-08-29 08:07:08.540 ,5,1,0,24,0,24
1981-08-29 08:07:32.540 ,6,1,0,24,0,24
1981-08-29 08:07:56.540 ,7,1,0,24,0,24
1981-08-29 08:08:20.540 ,7,1,0,24,0,24
1981-08-29 08:08:44.540 ,7,0,0,24,0,24
1981-08-29 08:09:08.540 ,6,1,0,24,0,24
1981-08-29 08:09:32.540 ,6,0,0,24,0,24
1981-08-29 08:09:56.540 ,5,1,0,24,0,24
1981-08-29 08:10:20.540 ,5,0,0,24,0,24
1981-08-29 08:10:44.540 ,4,1,0,24,0,24
1981-08-29 08:11:08.540 ,4,0,0,24,0,24
1981-08-29 08:11:32.540 ,3,1,0,24,0,24
1981-08-29 08:11:56.540 ,3,0,0,24,0,24
1981-08-29 08:12:20.540 ,2,1,0,24,0,24
1981-08-29 08:12:44.540 ,2,0,0,24,0,24
1981-08-29 08:13:08.540 ,1,1,0,24,0,24
1981-08-29 08:13:32.540 ,1,0,0,24,0,24
1981-08-29 08:13:56.540 ,0,1,0,24,0,24
1981-08-29 08:14:20.540 ,0,0,0,24,0,24
1981-08-29 08:14:44.540 ,0,1,0,24,0,24
1981-08-29 08:15:08.540 ,0,0,0,24,0,24
1981-08-29 08:15:32.540 ,1,1,0,24,0,24
1981-08-29 08:15:56.540 ,1,0,0,24,0,24
1981-08-29 08:16:20.540 ,2,1,0,24,0,24
1981-08-29 08:16:44.540 ,2,0,0,24,0,24
1981-08-29 08:17:08.540 ,3,1,0,24,0,24
1981-08-29 08:17:32.540 ,3,0,0,24,0,24
1981-08-29 08:17:56.540 ,4,1,0,24,0,24
1981-08-29 08:18:20.540 ,4,0,0,24,0,24
1981-08-29 08:18:44.540 ,5,1,0,24,0,24
1981-08-29 08:19:08.540 ,5,0,0,24,0,24
1981-08-29 08:19:32.540 ,6,1,0,24,0,24
1981-08-29 08:19:56.540 ,6,0,0,24,0,24
1981-08-29 08:20:20.540 ,7,1,0,24,0,24
1981-08-29 08:20:44.540 ,7,0,0,24,0,24
1981-08-29 08:21:08.540 ,7,1,0,24,0,24
1981-08-29 08:21:32.540 ,6,1,0,24,0,24
1981-08-29 08:21:56.540 ,5,1,0,24,0,24
1981-08-29 08:22:20.540 ,4,1,0,24,0,24
1981-08-29 08:22:44.540 ,3,1,0,24,0,24
1981-08-29 08:23:08.540 ,2,1,0,24,0,24
1981-08-29 08:23:32.540 ,1,1,0,24,0,24
1981-08-29 08:23:56.540 ,0,1,0,24,0,24
1981-08-29 08:24:20.540 ,0,1,0,24,0,24
1981-08-29 08:24:44.540 ,1,1,0,24,0,24
1981-08-29 08:25:08.540 ,2,1,0,24,0,24
1981-08-29 08:25:32.540 ,3,1,0,24,0,24
1981-08-29 08:25:56.540 ,4,1,0,24,0,24
1981-08-29 08:26:20.540 ,5,1,0,24,0,24
1981-08-29 08:26:44.540 ,6,1,0,24,0,24
1981-08-29 08:27:08.540 ,7,1,0,24,0,24
1981-08-29 08:27:32.540 ,7,1,0,24,0,24
1981-08-29 08:27:56.540 ,7,0,0,24,0,24
1981-08-29 08:28:20.540 ,6,1,0,24,0,24
1981-08-29 08:28:44.540 ,6,0,0,24,0,24
1981-08-29 08:29:08.540 ,5,1,0,24,0,24
1981-08-29 08:29:32.540 ,5,0,0,24,0,24
1981-08-29 08:29:56.540 ,4,1,0,24,0,24
1981-08-29 08:30:20.540 ,4,0,0,24,0,24
1981-08-29 08:30:44.540 ,3,1,0,24,0,24
1981-08-29 08:31:08.540 ,3,0,0,24,0,24
1981-08-29 08:31:32.540 ,2,1,0,24,0,24
1981-08-29 08:31:56.540 ,2,0,0,24,0,24
1981-08-29 08:32:20.540 ,1,1,0,24,0,24
1981-08-29 08:32:44.540 ,1,0,0,24,0,24
1981-08-29 08:33:08.540 ,0,1,0,24,0,24
1981-08-29 08:33:32.540 ,0,0,0,24,0,24
1981-08-29 08:33:56.530 ,0,1,0,24,0,24
1981-08-29 08:34:20.530 ,0,0,0,24,0,24
1981-08-29 08:34:20.530 ,0,0,0,24,0,24
1981-08-29 08:34:44.530 ,1,1,0,24,0,24
1981-08-29 08:35:08.530 ,1,0,0,24,0,24
1981-08-29 08:35:32.530 ,2,1,0,24,0,24
1981-08-29 08:35:56.530 ,2,0,0,24,0,24
1981-08-29 08:36:20.530 ,3,1,0,24,0,24
1981-08-29 08:36:44.530 ,3,0,0,24,0,24
1981-08-29 08:37:08.530 ,4,1,0,24,0,24
1981-08-29 08:37:32.530 ,4,0,0,24,0,24
1981-08-29 08:37:56.530 ,5,1,0,24,0,24
1981-08-29 08:38:20.530 ,5,0,0,24,0,24
1981-08-29 08:38:44.530 ,6,1,0,24,0,24
1981-08-29 08:39:08.530 ,6,0,0,24,0,24
1981-08-29 08:39:32.530 ,7,1,0,24,0,24
1981-08-29 08:39:56.530 ,7,0,0,24,0,24
1981-08-29 08:40:20.530 ,7,1,0,24,0,24
1981-08-29 08:40:44.530 ,6,1,0,24,0,24
1981-08-29 08:41:08.530 ,5,1,0,24,0,24
1981-08-29 08:41:32.530 ,4,1,0,24,0,24
1981-08-29 08:41:56.530 ,3,1,0,24,0,24
1981-08-29 08:42:20.530 ,2,1,0,24,0,24
1981-08-29 08:42:44.530 ,1,1,0,24,0,24
1981-08-29 08:43:08.530 ,0,1,0,24,0,24
1981-08-29 08:43:32.530 ,0,1,0,24,0,24
1981-08-29 08:43:56.530 ,1,1,0,24,0,24
1981-08-29 08:44:20.530 ,2,1,0,24,0,24
1981-08-29 08:44:44.530 ,3,1,0,24,0,24
1981-08-29 08:45:08.530 ,4,1,0,24,0,24
1981-08-29 08:45:32.530 ,5,1,0,24,0,24
1981-08-29 08:45:56.530 ,6,1,0,24,0,24
1981-08-29 08:46:20.530 ,7,1,0,24,0,24
1981-08-29 08:46:44.530 ,7,1,0,24,0,24
1981-08-29 08:47:08.530 ,7,0,0,24,0,24
1981-08-29 08:47:32.530 ,6,1,0,24,0,24
1981-08-29 08:47:56.530 ,6,0,0,24,0,24
1981-08-29 08:48:20.530 ,5,1,0,24,0,24
1981-08-29 08:48:44.530 ,5,0,0,24,0,24
1981-08-29 08:49:08.530 ,4,1,0,24,0,24
1981-08-29 08:49:32.530 ,4,0,0,24,0,24
1981-08-29 08:49:56.530 ,3,1,0,24,0,24
1981-08-29 08:50:20.530 ,3,0,0,24,0,24
1981-08-29 08:50:44.530 ,2,1,0,24,0,24
1981-08-29 08:51:08.530 ,2,0,0,24,0,24
1981-08-29 08:51:32.530 ,1,1,0,24,0,24
1981-08-29 08:51:56.530 ,1,0,0,24,0,24
1981-08-29 08:52:20.530 ,0,1,0,24,0,24
1981-08-29 08:52:44.530 ,0,0,0,24,0,24
1981-08-29 08:53:08.530 ,0,1,0,24,0,24
1981-08-29 08:53:32.530 ,0,0,0,24,0,24
1981-08-29 08:53:56.530 ,1,1,0,24,0,24
1981-08-29 08:54:20.530 ,1,0,0,24,0,24
1981-08-29 08:54:44.530 ,2,1,0,24,0,24
1981-08-29 08:55:08.530 ,2,0,0,24,0,24
1981-08-29 08:55:32.530 ,3,1,0,24,0,24
1981-08-29 08:55:56.530 ,3,0,0,24,0,24
1981-08-29 08:56:20.530 ,4,1,0,24,0,24
1981-08-29 08:56:44.530 ,4,0,0,24,0,24
1981-08-29 08:57:08.530 ,5,1,0,24,0,24
1981-08-29 08:57:32.530 ,5,0,0,24,0,24
1981-08-29 08:57:56.530 ,6,1,0,24,0,24
1981-08-29 08:58:20.530 ,6,0,0,24,0,24
1981-08-29 08:58:44.530 ,7,1,0,24,0,24
1981-08-29 08:59:08.530 ,7,0,0,24,0,24
1981-08-29 08:59:32.530 ,7,1,0,24,0,24
1981-08-29 08:59:56.530 ,6,1,0,24,0,24
1981-08-29 09:00:20.530 ,5,1,0,24,0,24
